Change the Weather History Date:

Wednesday, March 6, 2013

  Actual Average Record
Temperature  
Mean Temperature 14 °F -  
Max Temperature 24 °F 32 °F 63 °F (1987)
Min Temperature 3 °F 7 °F -28 °F (1955)
Degree Days  
Heating Degree Days 52    
Moisture  
Dew Point 11 °F    
Average Humidity 76    
Maximum Humidity 88    
Minimum Humidity 60    
Precipitation  
Precipitation 0.00 in - - ()
Sea Level Pressure  
Sea Level Pressure 30.40 in    
Wind  
Wind Speed 4 mph (NNW)    
Max Wind Speed 9 mph    
Max Gust Speed -    
Visibility 10 miles    
Events Snow    
Averages and records for this station are not official NWS values.
T = Trace of Precipitation, MM = Missing Value Source: NWS Daily Summary

Daily Weather History Graph

Daily Weather History Graph

Search for Another Location

Airport or City:

Trip Planner

Search our weather history database for the weather conditions in past years. The results will help you decide how hot, cold, wet, or windy it might be!

Date:

Astronomy

Mar. 06, 2013 Rise Set
Actual Time 6:50 AM CST 6:13 PM CST
Civil Twilight 6:19 AM CST 6:43 PM CST
Nautical Twilight 5:44 AM CST 7:19 PM CST
Astronomical Twilight 5:09 AM CST 7:54 PM CST
Moon 3:16 AM CST (3/6) 12:40 PM CST (3/6)
Length of Visible Light 12h 24m
Length of Day
11h 23m
Waning Crescent, 29% of the Moon is Illuminated
Mar 6
Waning Crescent
Mar 11
New
Mar 19
First Quarter
Mar 27
Full
Apr 2
Last Quarter

Hourly Weather History & Observations

Time (CST) Temp. Windchill Dew Point Humidity Pressure Visibility Wind Dir Wind Speed Gust Speed Precip Events Conditions
12:53 AM 19.0 °F 11.1 °F 14.0 °F 81% 30.40 in 10.0 mi NNW 5.8 mph - N/A   Overcast
1:53 AM 18.0 °F 11.1 °F 14.0 °F 84% 30.40 in 10.0 mi North 4.6 mph - N/A   Overcast
2:53 AM 19.0 °F 11.1 °F 12.9 °F 77% 30.40 in 10.0 mi North 5.8 mph - N/A   Overcast
3:53 AM 18.0 °F 8.7 °F 12.9 °F 81% 30.40 in 10.0 mi North 6.9 mph - N/A   Overcast
4:53 AM 18.0 °F 8.7 °F 12.9 °F 81% 30.41 in 10.0 mi North 6.9 mph - N/A   Overcast
5:53 AM 18.0 °F 11.1 °F 14.0 °F 84% 30.43 in 10.0 mi North 4.6 mph - N/A   Overcast
6:53 AM 18.0 °F 8.7 °F 12.9 °F 81% 30.44 in 10.0 mi NNW 6.9 mph - N/A   Overcast
7:53 AM 17.1 °F 5.8 °F 12.0 °F 81% 30.45 in 9.0 mi NW 9.2 mph - N/A   Overcast
8:53 AM 17.1 °F 8.7 °F 12.0 °F 81% 30.46 in 9.0 mi NNE 5.8 mph - N/A   Overcast
9:53 AM 17.1 °F 7.6 °F 10.9 °F 77% 30.46 in 6.0 mi NNW 6.9 mph - 0.00 in Snow Light Snow
10:35 AM 17.6 °F 10.7 °F 10.4 °F 73% 30.37 in 10.0 mi Variable 4.6 mph - 0.00 in   Overcast
10:53 AM 19.0 °F - 12.0 °F 74% 30.45 in 9.0 mi Calm Calm - 0.00 in   Overcast
11:53 AM 21.0 °F 13.4 °F 12.0 °F 68% 30.43 in 10.0 mi North 5.8 mph - 0.00 in   Overcast
12:53 PM 21.0 °F - 12.0 °F 68% 30.42 in 10.0 mi Calm Calm - N/A   Mostly Cloudy
1:02 PM 21.2 °F - 12.2 °F 68% 30.33 in 10.0 mi Calm Calm - N/A   Scattered Clouds
1:53 PM 21.0 °F 14.6 °F 12.9 °F 71% 30.40 in 10.0 mi SW 4.6 mph - N/A   Clear
2:53 PM 21.9 °F 17.2 °F 12.9 °F 68% 30.39 in 10.0 mi SSW 3.5 mph - N/A   Clear
3:53 PM 24.1 °F - 12.0 °F 60% 30.38 in 10.0 mi Calm Calm - N/A   Clear
4:53 PM 21.0 °F - 10.9 °F 65% 30.37 in 10.0 mi Calm Calm - N/A   Clear
5:53 PM 17.1 °F - 9.0 °F 71% 30.37 in 10.0 mi Calm Calm - N/A   Clear
6:53 PM 17.1 °F - 9.0 °F 71% 30.37 in 10.0 mi Calm Calm - N/A   Clear
7:53 PM 14.0 °F 3.9 °F 9.0 °F 80% 30.39 in 10.0 mi NE 6.9 mph - N/A   Clear
8:53 PM 16.0 °F 8.8 °F 10.0 °F 77% 30.38 in 10.0 mi East 4.6 mph - N/A   Clear
9:53 PM 3.9 °F - 1.0 °F 88% 30.40 in 10.0 mi Calm Calm - N/A   Clear
10:53 PM 3.0 °F - -0.0 °F 87% 30.40 in 10.0 mi Calm Calm - N/A   Clear
11:53 PM 9.0 °F - 6.1 °F 88% 30.38 in 10.0 mi Calm Calm - N/A   Clear